Regional Weather Roundup
Issued by NWS

Home | Current Version | Previous Version | Graphics & Text | Print | Product List | Glossary On
Versions: 1 2 3 4 5 6 7 8 9 10 11 12 13 14 15 16 17 18 19 20 21 22 23 24 25 26 27 28 29 30 31 32 33 34 35 36 37 38 39 40 41 42 43 44 45 46 47 48 49 50
051
ASUS45 KBOU 051407
RWRCO

WEATHER ROUNDUP FOR COLORADO
NATIONAL WEATHER SERVICE DENVER/BOULDER CO
700 AM MST MON DEC 05 2016

NOTE: "FAIR" INDICATES FEW OR NO CLOUDS BELOW 12000 FEET WITH NO
SIGNIFICANT WEATHER AND/OR OBSTRUCTIONS TO VISIBILITY.

COZ001>005-013-030-031-051500-
...NORTHWEST COLORADO...

CITY           SKY/WX    TMP DP  RH WIND       PRES   REMARKS
CRAIG          FAIR      26  15  63 W9        29.70R WCI  17
HAYDEN         CLOUDY    28  12  50 CALM      29.68S
MEEKER         MOCLDY    35  15  44 W6        29.73R WCI  30
MOUNT WERNER   NOT AVBL
STEAMBOAT SPGS CLOUDY    26  20  78 E3        29.68S
WALDEN           N/A     30  18  59 SW17      29.66S WCI  18
$$

COZ006>008-011-051500-
...WEST CENTRAL VALLEYS...

CITY           SKY/WX    TMP DP  RH WIND       PRES   REMARKS
GRAND JUNCTION FAIR      23  21  92 E3        29.82S
MONTROSE       CLOUDY    30  21  69 SE5       29.81S WCI  25
EAGLE          CLOUDY    32  16  51 W6        29.76R WCI  26
RIFLE          MOCLDY    25  19  78 CALM      29.80R
DELTA          NOT AVBL
NUCLA          FAIR      27  18  69 S5        29.88R WCI  21
$$

COZ017>023-064>068-051500-
...SOUTHWEST COLORADO...

CITY           SKY/WX    TMP DP  RH WIND       PRES   REMARKS
DURANGO        MOCLDY    17  14  88 CALM      29.90F
CORTEZ         CLOUDY    26  21  81 NE3       29.90F
PAGOSA SPRINGS MOCLDY    17  16  95 CALM      29.90F
TELLURIDE      NOT AVBL
WOLF CREEK PAS FAIR      14  10  85 SW17      29.93F WCI  -3
$$

COZ009-010-012-014-032>034-037-058>063-051500-
...CENTRAL COLORADO...

CITY           SKY/WX    TMP DP  RH WIND       PRES   REMARKS
ASPEN          CLOUDY    30  17  58 N6        29.72S WCI  24
BUENA VISTA    CLOUDY    32  15  48 E5        29.73S WCI  28
COPPER MTN     LGT SNOW  25  16  68 MISG      29.73F VSB 1
BERTHOUD PASS  LGT SNOW  14   3  62 W17G39    29.69R VSB 3/4 WCI  -3
COTTONWOOD PAS CLOUDY    34  12  40 SW9G24    29.75S WCI  26
GUNNISON       FAIR      12   8  84 W3        29.85S
KREMMLING      MOCLDY    37  18  44 W17G38    29.69S
LEADVILLE      CLOUDY    28  15  58 N8        29.71R WCI  20
MONARCH PASS   CLOUDY    18  12  79 W33G45    29.89S WCI  -3
SALIDA         FAIR      34  12  40 SW15G22   29.81S WCI  25
SUNLIGHT       CLOUDY    19  14  79 SW21G35   29.78S WCI   3
WILKERSON PASS MOCLDY    23  12  63 SW22G32   29.73F WCI   8
$$

COZ069>075-051500-
...SAN LUIS VALLEY/SANGRE DE CRISTO MOUNTAINS...

CITY           SKY/WX    TMP DP  RH WIND       PRES   REMARKS
ALAMOSA        FAIR       2  -2  83 NW3       29.84F
LA VETA PASS   FAIR      23  12  63 NE28G40   29.76F WCI   6
SAGUACHE       FAIR      10   5  79 CALM      29.85S
$$

COZ035-036-038>040-051500-
...NORTHERN COLORADO FRONT RANGE...

CITY           SKY/WX    TMP DP  RH WIND       PRES   REMARKS
DENVER INTL AP MOCLDY    34  17  50 NW3       29.59R
DMNS CITY PARK   N/A     38  19  45 E10       29.58S
AURORA         MOCLDY    41  15  35 NW7       29.60R
FRONT RANGE AP MOCLDY    28  21  74 E7        29.60  WCI  21
ERIE MUNI ARPT MOCLDY    46  22  37 NW15      29.58R
BOULDER MUN AP CLOUDY    45  27  49 W3        29.59F
CENTENNIAL     FAIR      40  17  39 NW7       29.59R
BROOMFIELD     MOCLDY    48  21  34 W18       29.60R
FORT COLLINS   FAIR      45  23  42 SW16      29.60R
LONGMONT       FAIR      48  24  38 W14G22    29.62F
$$

COZ041-046-047-076>085-087-088-051500-
...PIKES PEAK/PALMER DIVIDE AND SOUTHERN FOOTHILLS...

CITY           SKY/WX    TMP DP  RH WIND       PRES   REMARKS
COLO. SPRINGS  FAIR      37  13  37 E7        29.62F
A. F. ACADEMY  FAIR      32  13  45 CALM      29.61F
SCHRIEVER AFB  NOT AVBL
ELLICOTT       FAIR     N/A N/A N/A SE7       29.61F
FALCON         FAIR      39  11  32 SE3       29.64S
FORT CARSON    FAIR      32  13  46 VRB5      29.60S WCI  27
LIMON          FAIR      21  15  78 N7        29.59S WCI  12
MONUMENT HILL  FAIR      37  14  38 SW9       29.65S
TRINIDAD       FAIR      29  12  49 W9        29.68R WCI  20
$$

COZ042>045-048>051-090-091-051500-
...NORTHEAST COLORADO...

CITY           SKY/WX    TMP DP  RH WIND       PRES   REMARKS
GREELEY ARPT   FAIR      23  15  71 E6        29.59S WCI  16
AKRON          CLOUDY    35  16  45 SW9       29.58R WCI  28
BURLINGTON     FAIR      27  14  58 SW8       29.59S WCI  19
WRAY           NOT AVBL
STERLING       FAIR      23  18  80 SW3       29.58S
HOLYOKE        FAIR      34  19  55 SW7G18    29.59R WCI  28
FORT MORGAN    MOCLDY    28  16  59 W7        29.60S WCI  21
$$

COZ086-089-092>099-051500-
...SOUTHEAST COLORADO...

CITY           SKY/WX    TMP DP  RH WIND       PRES   REMARKS
PUEBLO         FAIR      26  17  68 NW8       29.61S WCI  18
LA JUNTA       FAIR      30  16  56 CALM      29.62S
LAMAR          MIX PCPN  20  14  77 CALM      29.61S
SPRINGFIELD      N/A     26  16  65 CALM      29.61F
$$




USA.gov is the U.S. government's official web portal to all federal, state and local government web resources and services.